SCP
0 0 0 0 0 0 0 0 0 0 0 0 0 0 0 0 0 0 0 0 0 0 0 0 0 0 0 0 0 0 0 0 0 0 0 0 0 0 0 0 0 0 0
0 0 0 0 0 0 0 0 0 0 0 0 0 0 0 0 0 0 0 0 0 0 0 0 0 0 0 0 0 0 0 0 0 0 0 0 0 0 0 0 0 0 0
0 0 0 0 0 0 0 0 0 0 0 0 0 0 0 0 0 0 0 0 0 0 0 0 0 0 0 0 0 0 0 0 0 0 0 0 0 0 0 0 0 0 0
0 0 0 0 0 0 0 0 0 0 0 0 0 0 0 0 0 0 0 0 0 0 0 0 0 0 0 0 0 0 0 0 0 0 0 0 0 0 0 0 0 0 0
0 0 0 0 0 0 0 0 0 0 0 0 0 0 0 0 0 0 0 0 0 0 0 0 0 0 0 0 0 0 0 0 0 0 0 0 0 0 0 0 0 0 0
0 0 0 0 0 0 0 0 0 0 0 0 0 0 0 0 0 0 0 0 0 0 0 0 0 0 0 0 0 0 0 0 0 0 0 0 0 0 0 0 0 0 0
0 0 0 0 0 0 0 0 0 0 0 0 0 0 0 0 0 0 0 0 0 0 0 0 0 0 0 0 0 0 0 0 0 0 0 0 0 0 0 0 0 0 0
0 0 0 0 0 0 0 0 0 0 0 0 0 0 0 0 0 0 0 0 0 0 0 0 0 0 0 0 0 0 0 0 0 0 0 0 0 0 0 0 0 0 0
0 0 0 0 0 0 0 0 0 0 0 0 0 0 0 0 0 0 -0 -0 0 0 0 0 0 0 0 0 0 0 0 0 0 0 0 0 0 0 0 0 0 0 0
0 0 0 0 0 0 0 0 0 0 0 0 0 0 0 0 0 0 0 0 0 0 0 0 0 0 0 0 0 0 0 0 0 0 0 0 0 0 0 0 0 0 0
0 0 0 0 0 0 0 0 0 0 0 0 -0 0 0 0 0 0 0 0 0 0 0 0 0 0 0 0 0 0 0 0 0 0 0 0 0 0 0 0 0 0 0
0 0 0 0 0 0 0 0 0 0 0 0 0 0 0 0 0 0 0 0 0 0 0 0 0 0 0 0 0 0 0 0 0 0 0 0 0 0 0 0 0 0 0
0 0 0 0 0 0 0 0 0 0 0 0 0 0 0 0 0 0 0 0 0 0 0 0 0 0 0 0 0 0 0 0 0 0 0 0 0 0 0 0 0 0 0
0 0 0 0 0 0 0 0 0 0 0 0 0 0 0 0 0 0 0 0 0 0 0 0 0 0 0 0 0 0 0 0 -0 0 0 0 0 0 0 0 0 0 0
0 0 0 0 0 0 0 0 0 0 0 0 0 0 0 0 0 0 0 0 0 0 0 0 0 0 0 0 0 0 0 0 0 0 0 0 0 0 0 0 0 0 0
0 0 0 0 0 0 0 0 0 0 0 0 0 0 0 0 0 -0 -0 -0 0 0 0 0 0 0 0 0 0 0 0 0 0 0 -0 -0 0 0 0 0 0 0 0
0 0 0 0 0 0 0 0 0 0 0 0 0 0 0 0 0 0 0 0 0 0 0 0 0 0 0 0 0 0 0 0 0 0 0 0 0 0 0 0 0 0 0
0 0 0 0 0 0 0 0 0 0 0 0 0 0 0 0 0 0 0 0 0 0 0 0 0 0 0 0 0 0 0 0 0 0 0 0 0 0 0 0 0 0 0
0 0 0 0 0 0 0 0 0 0 0 0 0 0 0 0 0 0 0 0 0 0 0 0 0 0 0 0 0 0 0 0 0 0 0 0 0 0 0 0 0 0 0
0 0 0 0 0 0 0 0 0 0 0 0 0 0 0 0 0 0 0 0 0 0 0 0 0 0 0 0 0 0 0 0 0 0 0 0 0 0 0 0 0 0 0
0 0 0 0 0 0 0 0 0 0 0 0 0 0 0 0 0 0 0 0 0 0 0 0 0 0 0 0 0 0 0 0 0 0 0 0 0 0 0 0 0 0 0
0 0 0 0 0 0 0 0 0 0 0 0 0 0 0 0 0 0 0 0 0 0 0 0 0 0 0 0 0 0 0 0 0 0 0 0 0 0 0 0 0 0 0
0 0 0 0 0 0 0 0 0 0 0 0 0 0 0 0 0 0 0 0 0 0 0 0 0 0 0 0 0 0 0 0 0 0 0 0 0 0 0 0 0 0 0
0 0 0 0 0 0 0 0 0 0 0 0 0 0 0 0 0 0 0 0 0 0 0 0 0 0 0 0 0 0 0 0 0 0 0 0 0 0 0 0 0 0 0
0 0 0 0 0 0 0 0 0 0 0 0 0 0 0 0 0 0 0 0 0 0 0 0 0 0 0 0 0 0 0 0 0 0 0 0 0 0 0 0 0 0 0
0 0 0 0 0 0 0 0 0 0 0 0 0 0 0 0 0 0 0 0 0 0 0 0 0 0 0 0 0 0 0 0 0 0 0 0 0 0 0 0 0 0 0
Wind_Speed
5 5 7 7 6 6 6 5 6 4 4 3 3 3 2 2 2 3 4 4 4 4 4 3 4 4 4 3 4 4 5 3 3 4 4 5 5 6 5 4 4 5 5
5 6 6 6 6 6 6 5 6 5 4 3 3 2 2 1 1 2 3 4 4 4 4 4 3 3 4 4 4 3 3 2 1 3 3 3 4 5 5 4 4 4 4
9 8 7 6 6 6 6 6 5 5 4 5 4 4 3 3 3 3 2 3 4 4 4 4 3 3 3 3 3 3 3 2 1 1 3 3 2 1 3 4 4 4 4
9 9 9 7 7 6 5 6 6 5 5 5 6 5 3 2 1 1 1 2 3 4 4 4 4 3 3 3 2 2 2 3 1 1 1 2 4 3 1 3 3 4 4
11 11 10 9 7 6 6 6 6 5 5 5 6 6 4 2 1 1 2 2 3 3 4 3 3 3 2 2 2 2 2 2 2 1 1 3 2 2 3 1 2 3 3
11 10 8 8 6 6 6 6 6 5 5 5 6 6 6 4 4 2 2 1 1 2 3 3 3 3 2 2 2 3 3 2 2 2 2 2 2 2 3 3 1 1 2
11 10 9 8 7 7 7 7 7 5 5 5 5 6 6 6 5 4 3 2 1 1 1 2 2 2 2 2 3 3 3 3 3 2 2 2 2 2 3 4 2 1 1
10 11 11 10 9 9 8 8 7 6 6 6 5 5 5 4 3 4 3 3 2 1 1 2 3 3 3 3 3 3 3 3 3 3 3 2 2 2 3 3 3 2 2
10 10 10 9 10 10 9 9 8 7 6 6 5 5 5 4 4 4 3 2 2 2 2 3 3 3 3 3 4 3 3 3 3 3 3 3 2 2 2 2 3 4 2
9 9 9 9 9 9 8 8 8 8 6 6 6 5 5 5 4 4 4 3 3 2 3 3 3 3 3 3 4 3 3 4 3 2 4 3 2 2 2 2 2 2 4
10 10 9 9 9 7 8 8 7 6 6 6 5 5 5 5 5 4 4 4 3 3 3 3 3 3 3 3 3 3 3 4 3 3 4 3 3 3 2 2 2 2 3
10 10 9 8 8 8 8 8 8 7 7 6 6 5 5 5 5 4 4 4 4 3 4 4 4 3 3 3 3 3 3 3 3 2 3 2 3 3 2 2 2 2 2
8 8 8 8 8 9 8 8 7 7 7 7 6 6 5 5 5 5 4 4 4 3 3 4 4 3 3 3 3 3 3 3 3 3 3 2 3 2 2 2 2 1 2
8 9 8 8 8 8 8 8 7 7 7 7 7 7 6 6 6 5 5 5 5 4 4 3 3 3 3 3 3 3 2 2 2 2 2 2 3 3 2 2 2 2 2
8 10 9 8 8 8 8 8 7 7 7 7 7 7 6 5 5 5 5 4 4 5 4 3 3 3 3 3 4 3 3 3 2 2 1 2 3 4 3 3 2 3 2
9 9 9 9 9 9 9 8 8 8 8 8 8 7 6 6 6 6 5 5 4 4 4 4 4 3 2 5 7 5 4 3 3 2 1 1 1 2 3 4 4 5 4
8 9 9 9 10 10 9 10 9 8 8 8 7 7 7 6 6 6 6 5 5 4 4 4 4 3 3 6 7 8 5 4 3 3 2 1 1 2 2 2 2 1 2
8 8 8 8 8 8 8 8 8 8 8 7 7 7 7 7 6 6 6 5 4 4 4 4 4 3 3 5 7 8 4 3 3 3 3 3 2 2 3 2 1 1 1
7 7 7 7 7 7 8 8 8 8 7 8 8 8 8 7 7 7 6 5 4 4 4 4 4 4 3 5 6 6 3 2 2 2 2 3 3 4 4 3 2 1 3
4 5 4 5 6 6 7 8 8 8 8 8 8 7 7 8 8 8 6 4 4 4 4 4 3 4 3 4 5 6 3 2 1 1 2 3 4 4 5 4 3 3 4
4 5 5 5 4 5 7 8 7 7 7 6 6 6 7 7 7 6 4 4 4 4 3 3 2 2 3 3 4 6 3 3 2 2 2 2 4 4 5 5 4 5 3
4 5 6 4 3 5 7 7 6 6 5 5 6 6 6 6 6 6 4 4 5 4 3 2 1 1 1 2 3 5 5 5 3 3 2 2 3 4 4 3 3 4 2
5 4 6 5 3 4 6 7 5 5 6 6 5 5 5 4 5 6 5 4 4 3 3 3 2 1 1 2 3 4 5 5 3 3 3 3 3 3 3 3 3 2 2
5 5 6 5 3 3 4 5 4 6 6 6 5 4 5 4 4 4 4 4 4 4 3 3 3 2 1 1 1 1 2 2 2 1 1 1 1 1 2 2 2 1 2
4 5 6 5 4 3 3 3 4 6 6 5 4 4 4 4 3 3 2 4 4 5 5 4 3 3 2 4 4 3 2 2 2 1 1 1 1 1 1 2 2 2 2
5 5 5 5 4 4 4 3 4 6 7 5 4 3 3 3 3 3 2 3 3 4 5 4 4 2 2 1 2 2 2 3 3 3 1 1 1 2 2 3 3 2 3
Wind_Direction
189 158 152 147 141 136 135 133 130 129 117 103 97 88 72 48 41 45 52 56 58 65 77 81 76 81 87 92 96 94 81 69 84 82 59 36 38 44 40 43 51 48 46
175 160 154 150 149 147 146 143 141 138 131 127 129 129 122 89 61 33 40 46 59 66 87 91 90 91 93 88 90 97 94 76 62 101 93 52 20 18 26 30 49 45 42
177 170 161 156 150 154 160 155 150 140 131 122 105 88 65 47 36 30 26 24 57 67 81 94 97 97 102 109 106 109 114 117 30 82 126 128 150 9 3 19 31 35 40
175 172 166 159 162 168 158 148 148 140 134 128 124 123 121 126 171 162 60 35 51 63 71 89 98 96 96 106 118 116 120 123 112 29 62 126 144 136 80 359 6 27 38
178 176 172 168 167 161 153 151 147 141 139 135 134 128 127 142 135 95 75 47 34 47 66 83 93 97 97 105 95 94 101 116 131 127 101 81 73 95 124 112 345 7 11
180 175 169 158 158 156 150 150 147 145 143 141 138 137 141 140 128 119 106 63 32 29 47 78 85 94 97 104 106 98 98 100 102 101 107 125 131 137 124 131 123 13 343
171 168 166 164 165 164 161 158 154 156 154 149 148 151 153 150 153 158 155 141 92 50 41 74 86 86 94 97 97 92 87 91 98 100 98 103 123 138 128 122 129 79 334
174 174 175 173 173 173 167 163 164 164 161 159 161 159 156 151 158 166 161 163 168 174 146 104 94 92 94 89 87 84 85 88 92 92 94 88 84 108 125 136 135 96 14
181 179 176 175 175 176 174 172 170 168 169 169 162 160 160 158 162 162 156 160 170 164 140 115 99 90 89 89 91 81 79 86 85 90 88 83 69 79 94 119 133 136 131
181 177 176 178 180 178 172 171 173 173 171 169 169 165 167 165 164 153 154 162 165 148 137 120 110 98 87 88 88 87 84 88 79 85 84 75 64 67 72 97 102 116 136
181 177 177 179 179 173 170 173 177 170 167 170 168 160 165 163 155 153 163 162 155 152 150 148 132 119 105 101 98 93 93 93 83 79 92 87 86 80 68 78 87 91 111
179 174 173 173 174 177 177 179 178 175 176 174 166 168 166 160 157 165 170 162 156 154 151 149 135 130 124 116 115 116 107 110 111 108 99 91 94 81 71 80 84 93 112
172 169 170 175 179 181 181 180 180 182 179 170 165 165 168 168 172 174 171 162 154 144 141 142 142 147 144 134 128 127 126 132 139 139 129 122 110 98 86 90 92 90 88
172 171 175 180 181 181 182 182 184 181 175 169 169 174 179 177 177 170 164 162 155 149 153 156 155 154 149 143 137 130 127 125 125 132 140 142 143 150 138 111 114 109 94
175 178 181 182 182 182 183 183 184 180 174 170 176 184 181 173 165 160 163 159 155 158 158 148 146 147 145 155 150 143 135 128 118 107 130 153 150 149 149 141 150 130 111
181 184 185 184 186 187 186 182 183 181 172 174 182 180 173 167 166 166 163 156 157 157 150 155 155 153 161 157 156 149 143 143 145 147 145 141 144 157 159 151 150 148 144
185 186 188 190 191 190 185 184 185 177 173 178 178 174 174 172 172 166 159 164 168 159 158 167 161 168 181 161 155 150 144 151 163 171 177 171 146 146 138 135 121 165 174
187 189 190 192 191 186 183 180 172 171 175 177 177 176 172 172 169 163 169 174 166 163 168 173 173 176 195 175 163 155 144 149 173 185 188 190 206 190 163 152 136 295 276
184 186 188 185 178 179 178 167 167 170 173 180 183 180 173 171 170 174 180 176 166 169 173 172 172 178 209 193 177 158 141 153 199 208 202 199 211 219 179 158 182 268 295
166 164 158 148 158 172 162 157 167 171 184 188 186 178 173 173 178 185 182 171 168 176 168 171 180 182 201 199 182 166 153 174 222 252 250 234 219 209 185 177 184 221 254
146 143 137 142 162 162 150 155 163 182 190 177 167 168 173 177 180 177 169 159 161 159 162 171 186 197 208 207 188 174 167 188 204 229 254 253 227 215 206 191 197 221 219
129 133 133 137 138 142 144 148 170 183 162 152 157 167 170 172 166 158 159 158 156 157 165 164 192 249 248 225 211 195 192 185 191 224 236 237 226 222 221 212 224 228 210
130 129 128 123 113 132 144 151 174 157 145 144 156 162 161 161 155 156 158 153 155 162 171 171 197 237 252 258 235 214 210 207 205 222 221 227 236 243 247 248 240 221 194
128 124 119 118 121 137 147 157 156 144 139 143 152 153 150 148 145 148 153 158 167 169 174 181 197 218 239 254 250 234 230 231 226 237 259 314 306 275 284 291 274 237 211
121 121 122 123 129 129 131 135 139 139 134 133 132 131 134 142 140 134 146 163 177 176 175 186 184 181 219 240 218 193 204 203 203 146 73 23 346 314 303 297 286 272 265
123 117 114 115 116 111 106 107 125 134 134 129 128 130 133 132 132 127 90 57 97 132 150 158 162 189 211 221 200 194 192 184 152 127 157 237 247 253 260 265 272 264 257